Terug naar catalogus

DELTA 1 DEB

ActiefPO
NORAD 9710·DEBRIS·🇺🇸 United States

Gelanceerd Jan 22, 1975 vanaf Vandenberg Space Force Base

Loading…

Volgende Passages (komende 24 uur)

TLE

VersSource: Space-Track

Epoch: Sep 14, 2026, 12:50 UTC

1 09710U 75004GU  26257.53510606  .00000178  00000-0  88602-4 0  9995
2 09710  97.6559 107.2753 0154620  34.5669 326.5447 14.20076736376728

Volg DELTA 1 DEB in realtime met AllMySat

Download on the App Store